Location: Góry Miechowskie
(50.3599°N, 20.1803°E)
Time: 16:24:14
(UTC+00:00)

deb Explorer IX - Pass Details

Date: 21 September 2024
Orbit: 504 x 830 km, 38.7° (Epoch: 04 October)

Event Time Altitude Azimuth Distance (km) Brightness Sun altitude
Rises 18:35:22 0° 253° (WSW) 3,357 ? -18.8°
Reaches altitude 10° 18:38:15 10° 240° (WSW) 2,450 ? -19.3°
Maximum altitude 18:42:56 25° 187° (S) 1,648 ? -19.9°
Enters shadow 18:44:17 23° 167° (SSE) 1,730 ? -20.1°
